Location: Natural Bridges National Monument
(37.6093°N, 109.9767°W)
Time: 07:44:08
(UTC-06:00)

Amateur Radio Satellites - All Passes

Search period start: 24 May 2016 07:14
Search period end: 25 May 2016 07:14
Location: Natural Bridges National Monument, 37.6093°N, 109.9767°W

Satellite Date Start Highest point End Downlink Frequencies (MHz)
Time Altitude Azimuth
CUTE-I 24 May 07:16:18 07:21:26 45° 99° (E) 07:26:32 437.470
Cosmos 2504 24 May 07:16:54 07:24:10 34° 274° (W) 07:31:46 435.465 / 435.565
STRAND 1 24 May 07:29:57 07:34:55 58° 73° (ENE) 07:39:56 437.568
GOMX 1 24 May 07:32:40 07:36:58 33° 96° (E) 07:40:59 467.674
NOAA 18 24 May 07:34:43 07:40:13 81° 104° (ESE) 07:45:42 137.9125
ISS 24 May 07:45:58 07:46:56 11° 233° (SW) 07:47:56 145.825
PRISM 24 May 07:59:00 08:01:47 18° 67° (ENE) 08:04:35 437.425
LilacSat-2 24 May 08:06:10 08:09:44 41° 286° (WNW) 08:13:17 437.200
Cubesat XI-IV 24 May 08:08:35 08:13:51 59° 287° (WNW) 08:19:06 437.490
NOAA 15 24 May 08:18:30 08:23:11 32° 292° (WNW) 08:27:49 137.62
HO-68 24 May 08:23:06 08:28:36 23° 94° (E) 08:34:04 435.675
BRITE-PL 24 May 08:25:59 08:30:33 31° 291° (WNW) 08:34:48 437.365/2234.400
AIST 1 24 May 08:26:03 08:28:20 14° 72° (ENE) 08:30:35
AO-85 24 May 08:26:19 08:31:22 37° 307° (NW) 08:36:20 145.980
DOVE 4 24 May 08:41:02 08:45:30 88° 101° (E) 08:49:43 437.250
AUBIESAT-1 24 May 08:45:41 08:48:15 21° 101° (ESE) 08:50:47 437.475
M-CUBED/EXP-1 PRIME 24 May 08:48:37 08:51:31 28° 103° (ESE) 08:54:22 437.505
CUTE-I 24 May 08:57:09 09:01:08 22° 295° (WNW) 09:05:07 437.470
JUGNU 24 May 08:57:50 09:00:06 12° 173° (S) 09:02:21 437.505
CANX-2 24 May 09:07:16 09:11:28 52° 100° (E) 09:15:39 2200.000
GOMX 1 24 May 09:11:12 09:14:48 21° 294° (WNW) 09:18:12 467.674
STRAND 1 24 May 09:11:40 09:14:26 15° 268° (W) 09:17:13 437.568
NOAA 18 24 May 09:17:43 09:20:08 13° 300° (WNW) 09:22:33 137.9125
SEEDS 24 May 09:17:55 09:21:59 43° 99° (E) 09:26:01 437.485
CUBEBUG 2 24 May 09:19:33 09:22:27 18° 94° (E) 09:25:21 437.445
Oscar 11 24 May 09:26:11 09:27:23 11° 91° (E) 09:28:35 145.826/435.025
ZACube-1 24 May 09:32:40 09:33:50 11° 92° (E) 09:34:59 437.345
GONETS M04 24 May 09:32:55 09:41:12 46° 76° (ENE) 09:49:25
PRISM 24 May 09:33:04 09:36:49 33° 262° (W) 09:40:37 437.425
CUTE 1.7 + AOD 2 24 May 09:35:14 09:39:31 82° 284° (WNW) 09:43:48 437.475
CINEMA 3 24 May 09:39:54 09:44:05 69° 283° (WNW) 09:48:11 145.822/145.860
SO-50 24 May 09:54:50 09:58:16 19° 46° (NE) 10:01:36 436.795
UWE-3 24 May 09:55:37 09:59:23 33° 97° (E) 10:03:11 435.000/436.395/437.385
AIST 1 24 May 10:02:01 10:06:09 43° 268° (W) 10:10:14
ANTELSAT 24 May 10:05:08 10:08:31 22° 69° (ENE) 10:11:52 437.575/2403.000
Cosmos 2499 24 May 10:09:06 10:17:18 48° 77° (ENE) 10:25:45 435.465 / 435.565
HO-68 24 May 10:09:39 10:16:41 61° 290° (WNW) 10:23:42 435.675
FUNcube-1 24 May 10:10:40 10:14:21 30° 97° (E) 10:18:05 145.935
COMPASS 1 24 May 10:11:09 10:15:19 61° 285° (WNW) 10:19:27 437.405
AAUSAT CUBESAT 2 24 May 10:17:29 10:21:39 65° 285° (WNW) 10:25:48 437.432
O/OREOS (USA 219) 24 May 10:20:15 10:24:26 37° 105° (ESE) 10:28:38 437.305
AUBIESAT-1 24 May 10:20:24 10:22:38 17° 296° (WNW) 10:24:52 437.475
M-CUBED/EXP-1 PRIME 24 May 10:24:23 10:25:50 12° 298° (WNW) 10:27:17 437.505
SRMSAT 24 May 10:44:45 10:46:14 11° 171° (S) 10:47:43 437.500
CANX-2 24 May 10:44:59 10:46:51 13° 295° (WNW) 10:48:42 2200.000
JUGNU 24 May 10:45:35 10:48:15 13° 184° (S) 10:50:56 437.505
SEEDS 24 May 10:54:53 10:57:18 15° 293° (WNW) 10:59:43 437.485
CUBEBUG 2 24 May 10:55:28 10:59:07 31° 288° (WNW) 11:02:48 437.445
DUCHIFAT 1 24 May 10:58:10 11:00:14 13° 65° (ENE) 11:02:17 145.980
UNISAT 6 24 May 10:59:08 11:03:34 88° 250° (WSW) 11:07:56 437.425
Oscar 11 24 May 10:59:34 11:03:50 56° 285° (WNW) 11:08:04 145.826/435.025
PCSat 24 May 11:00:19 11:05:41 70° 115° (ESE) 11:11:06 145.827
ZACube-1 24 May 11:06:20 11:10:23 52° 286° (WNW) 11:14:29 437.345
TIGRISAT 24 May 11:08:02 11:12:27 75° 259° (W) 11:16:47 435.000
DELFI C3 24 May 11:18:55 11:22:56 69° 285° (WNW) 11:26:57 145.870
POPSAT HIP 1 24 May 11:29:54 11:33:43 33° 72° (ENE) 11:37:32 437.405
GONETS M04 24 May 11:30:08 11:37:44 35° 274° (W) 11:45:20
QB50P1 24 May 11:30:38 11:34:29 35° 72° (ENE) 11:38:21 145.935-145.965
QB50P2 24 May 11:31:30 11:35:25 37° 72° (ENE) 11:39:21 145.880/145.840
BUGSAT 1 24 May 11:31:41 11:34:07 15° 66° (ENE) 11:36:33 437.445
UWE-3 24 May 11:32:47 11:35:36 18° 292° (WNW) 11:38:26 435.000/436.395/437.385
POLYITAN 1 24 May 11:33:55 11:37:51 38° 72° (ENE) 11:41:47 437.675
SO-50 24 May 11:34:31 11:39:02 49° 244° (WSW) 11:43:23 436.795
CUSAT 1 24 May 11:39:55 11:43:58 19° 80° (E) 11:48:35 437.405
JAS-2 24 May 11:40:44 11:44:40 15° 55° (NE) 11:48:44 435.910
ANTELSAT 24 May 11:41:13 11:45:03 29° 263° (W) 11:48:52 437.575/2403.000
HUMSAT D 24 May 11:47:11 11:51:20 78° 282° (WNW) 11:55:31 437.325/437.525
FUNcube-1 24 May 11:47:24 11:50:25 20° 291° (WNW) 11:53:27 145.935
NANOSAT C BR1 24 May 11:50:54 11:55:03 58° 75° (ENE) 11:59:12 145.865
O/OREOS (USA 219) 24 May 12:00:34 12:03:56 20° 301° (WNW) 12:07:19 437.305
HO-68 24 May 12:02:04 12:02:57 10° 309° (NW) 12:03:49 435.675
Cosmos 2499 24 May 12:02:36 12:10:08 36° 274° (W) 12:17:54 435.465 / 435.565
ESTCUBE 1 24 May 12:03:49 12:07:40 27° 96° (E) 12:11:29 437.505/2401.250
UKube-1 24 May 12:10:50 12:12:52 13° 92° (E) 12:14:54 .
BEESAT 3 24 May 12:23:29 12:26:56 30° 114° (ESE) 12:30:26 437.485
DUCHIFAT 1 24 May 12:31:24 12:35:30 48° 260° (W) 12:39:36 145.980
SRMSAT 24 May 12:31:48 12:34:31 13° 181° (S) 12:37:14 437.500
VELOX 1 24 May 12:41:19 12:45:35 45° 99° (E) 12:49:48 145.980
DANDE 24 May 12:41:39 12:45:42 26° 83° (E) 12:50:44 436.750
CUBEBUG 1 24 May 12:44:14 12:48:31 51° 100° (E) 12:52:44 437.445
PCSat 24 May 12:46:03 12:49:37 18° 313° (NW) 12:53:12 145.827
DX 1 24 May 12:48:47 12:53:00 46° 100° (E) 12:57:10 434.975-435.025
50 SAT 24 May 12:53:23 12:57:07 82° 102° (ESE) 13:00:50 437.505
BUGSAT 1 24 May 13:05:08 13:09:08 42° 261° (W) 13:13:09 437.445
POPSAT HIP 1 24 May 13:06:38 13:09:33 18° 266° (W) 13:12:29 437.405
QB50P1 24 May 13:07:30 13:10:20 17° 266° (W) 13:13:11 145.935-145.965
QB50P2 24 May 13:08:42 13:11:20 16° 267° (W) 13:14:00 145.880/145.840
POLYITAN 1 24 May 13:11:12 13:13:47 16° 267° (W) 13:16:22 437.675
AISAT 24 May 13:16:51 13:21:14 65° 285° (WNW) 13:25:35 437.250
BEESAT 2 24 May 13:18:28 13:22:25 77° 119° (ESE) 13:26:25 435.950
CUSAT 1 24 May 13:19:20 13:25:02 64° 283° (WNW) 13:32:17 437.405
JAS-2 24 May 13:21:13 13:28:18 78° 73° (ENE) 13:36:05 435.910
SPROUT 24 May 13:28:04 13:32:17 61° 101° (ESE) 13:36:29 437.525
Gurwin Techsat 1B 24 May 13:29:24 13:33:00 19° 64° (ENE) 13:36:36 435.225
NANOSAT C BR1 24 May 13:30:33 13:31:06 10° 269° (W) 13:31:39 145.865
Oscar 19 24 May 13:34:17 13:39:16 49° 72° (ENE) 13:44:17 437.125/150
ESTCUBE 1 24 May 13:40:35 13:44:22 26° 291° (WNW) 13:48:08 437.505/2401.250
UKube-1 24 May 13:44:59 13:49:09 47° 287° (WNW) 13:53:17 .
AO-7 24 May 13:57:27 14:00:32 13° 48° (NE) 14:03:37 29.400- 29.500
BEESAT 3 24 May 14:01:37 14:04:40 21° 310° (NW) 14:07:43 437.485
TISAT 1 24 May 14:05:54 14:09:53 42° 99° (E) 14:13:49 437.305
ITAMSAT 1 24 May 14:09:51 14:13:09 17° 64° (ENE) 14:16:28 435.822/435.867
VELOX 1 24 May 14:19:04 14:21:39 15° 295° (WNW) 14:24:14 145.980
CUBEBUG 1 24 May 14:22:10 14:24:20 14° 295° (WNW) 14:26:28 437.445
DANDE 24 May 14:23:33 14:28:09 36° 289° (WNW) 14:34:07 436.750
DX 1 24 May 14:26:18 14:28:46 15° 295° (WNW) 14:31:13 434.975-435.025
SWISSCUBE 24 May 14:40:58 14:44:34 21° 94° (E) 14:48:10 437.505
ITUPSAT 1 24 May 14:45:11 14:48:44 20° 94° (E) 14:52:17 437.325
Cosmos 2491 24 May 14:47:53 14:53:54 20° 66° (ENE) 14:59:50 435.465 / 435.565
AIST 2 24 May 14:58:05 15:02:06 53° 117° (ESE) 15:06:08 435.215
BEESAT 2 24 May 14:59:39 15:00:46 11° 316° (NW) 15:01:53 435.950
SPROUT 24 May 15:06:35 15:07:41 11° 296° (WNW) 15:08:46 437.525
Gurwin Techsat 1B 24 May 15:07:21 15:12:31 52° 260° (W) 15:17:42 435.225
JAS-2 24 May 15:09:22 15:14:06 19° 272° (W) 15:19:06 435.910
BEESAT 24 May 15:10:27 15:14:55 38° 99° (E) 15:19:22 436.000
Oscar 19 24 May 15:15:21 15:18:49 18° 267° (W) 15:22:19 437.125/150
AO-85 24 May 15:20:57 15:23:51 16° 43° (NE) 15:26:37 145.980
TISAT 1 24 May 15:42:51 15:45:09 15° 294° (WNW) 15:47:27 437.305
AO-7 24 May 15:43:31 15:51:37 62° 67° (ENE) 15:59:47 29.400- 29.500
ITAMSAT 1 24 May 15:47:06 15:52:09 54° 260° (W) 15:57:14 435.822/435.867
SWISSCUBE 24 May 16:18:03 16:22:27 37° 289° (WNW) 16:26:49 437.505
ITUPSAT 1 24 May 16:22:14 16:26:39 38° 290° (WNW) 16:31:04 437.325
AIST 2 24 May 16:38:27 16:40:53 15° 314° (NW) 16:43:21 435.215
YUBILEINY 24 May 16:41:56 16:50:08 48° 89° (E) 16:58:20 435.215
Cosmos 2491 24 May 16:42:58 16:51:44 81° 266° (W) 17:00:26 435.465 / 435.565
BEESAT 24 May 16:48:54 16:52:25 21° 294° (WNW) 16:55:56 436.000
MOZHAYETS 4 24 May 16:52:49 16:57:13 42° 98° (E) 17:01:36
AO-85 24 May 17:00:18 17:04:51 60° 243° (WSW) 17:08:56 145.980
KKS-1 24 May 17:02:52 17:07:19 76° 103° (ESE) 17:11:43 437.445
NOAA 18 24 May 17:21:23 17:24:39 16° 62° (ENE) 17:27:53 137.9125
HORYU 2 24 May 17:25:32 17:29:58 80° 257° (WSW) 17:34:24 437.375
RS-15 24 May 17:26:27 17:36:23 38° 106° (ESE) 17:46:45 29.354- 29.394
AO-7 24 May 17:38:06 17:44:47 27° 264° (W) 17:51:33 29.400- 29.500
STARS 24 May 17:48:09 17:52:30 66° 285° (WNW) 17:56:48 437.465
Cubesat XI-IV 24 May 17:50:13 17:54:16 23° 66° (ENE) 17:58:19 437.490
BRITE-PL 24 May 17:55:30 18:00:13 29° 68° (ENE) 18:05:02 437.365/2234.400
NOAA 15 24 May 17:56:55 18:01:47 39° 70° (ENE) 18:06:42 137.62
Cosmos 2504 24 May 18:00:13 18:06:42 38° 88° (E) 18:13:24 435.465 / 435.565
CUBESAT XI-V 24 May 18:08:53 18:13:03 30° 96° (E) 18:17:11 437.345
MOZHAYETS 4 24 May 18:30:59 18:34:02 18° 294° (WNW) 18:37:06
CUTE-I 24 May 18:36:12 18:41:24 61° 73° (ENE) 18:46:39 437.470
GOMX 1 24 May 18:37:37 18:42:31 34° 70° (ENE) 18:47:24 467.674
YUBILEINY 24 May 18:39:26 18:47:05 34° 287° (WNW) 18:54:48 435.215
Cosmos 2491 24 May 18:43:25 18:47:02 13° 284° (WNW) 18:50:39 435.465 / 435.565
LilacSat-2 24 May 18:45:45 18:49:32 67° 76° (ENE) 18:53:20 437.200
HO-68 24 May 18:52:06 18:55:52 15° 55° (NE) 18:59:37 435.675
NOAA 18 24 May 18:59:18 19:04:43 65° 258° (WSW) 19:10:10 137.9125
Cubesat XI-IV 24 May 19:29:01 19:34:02 42° 261° (W) 19:39:05 437.490
AUBIESAT-1 24 May 19:29:31 19:33:01 26° 67° (ENE) 19:36:21 437.475
M-CUBED/EXP-1 PRIME 24 May 19:32:43 19:36:39 35° 68° (ENE) 19:40:20 437.505
BRITE-PL 24 May 19:33:21 19:38:27 37° 264° (W) 19:43:44 437.365/2234.400
RS-15 24 May 19:37:03 19:48:11 60° 307° (NW) 20:00:02 29.354- 29.394
NOAA 15 24 May 19:37:25 19:41:38 24° 265° (W) 19:45:53 137.62
STRAND 1 24 May 19:43:00 19:47:02 23° 95° (E) 19:51:04 437.568
DOVE 4 24 May 19:43:10 19:48:26 72° 76° (ENE) 19:53:34 437.250
CUBESAT XI-V 24 May 19:46:28 19:50:16 25° 291° (WNW) 19:54:03 437.345
PCSat 24 May 19:50:18 19:55:19 37° 56° (NE) 20:00:19 145.827
Cosmos 2504 24 May 19:53:39 20:00:02 34° 287° (WNW) 20:06:43 435.465 / 435.565
CANX-2 24 May 19:58:24 20:02:01 29° 71° (ENE) 20:05:39 2200.000
SEEDS 24 May 20:08:15 20:11:33 23° 70° (ENE) 20:14:51 437.485
GOMX 1 24 May 20:15:48 20:20:31 29° 265° (W) 20:25:15 467.674
CUBEBUG 2 24 May 20:16:48 20:19:02 14° 66° (ENE) 20:21:15 437.445
CUTE-I 24 May 20:18:57 20:21:50 15° 268° (W) 20:24:44 437.470
CUTE 1.7 + AOD 2 24 May 20:25:47 20:29:51 52° 75° (ENE) 20:33:57 437.475
O/OREOS (USA 219) 24 May 20:31:51 20:36:14 51° 67° (ENE) 20:40:34 437.305
HO-68 24 May 20:35:22 20:42:30 84° 74° (ENE) 20:49:41 435.675
CINEMA 3 24 May 20:38:41 20:43:33 83° 77° (ENE) 20:48:13 145.822/145.860
BEESAT 3 24 May 20:43:38 20:45:20 12° 45° (NE) 20:47:02 437.485
UWE-3 24 May 20:51:10 20:54:32 22° 70° (ENE) 20:57:52 435.000/436.395/437.385
COMPASS 1 24 May 20:59:37 21:03:43 67° 75° (ENE) 21:07:50 437.405
AUBIESAT-1 24 May 21:03:57 21:07:25 24° 258° (WSW) 21:10:43 437.475
FUNcube-1 24 May 21:05:00 21:08:03 19° 69° (ENE) 21:11:05 145.935
AAUSAT CUBESAT 2 24 May 21:05:29 21:09:32 61° 75° (ENE) 21:13:38 437.432
M-CUBED/EXP-1 PRIME 24 May 21:08:10 21:11:12 18° 259° (W) 21:14:06 437.505
PRISM 24 May 21:16:15 21:20:06 35° 98° (E) 21:23:55 437.425
STRAND 1 24 May 21:21:33 21:26:17 38° 290° (WNW) 21:31:01 437.568
DOVE 4 24 May 21:24:20 21:26:29 12° 270° (W) 21:28:39 437.250
PCSat 24 May 21:33:59 21:38:32 28° 252° (WSW) 21:43:03 145.827
CANX-2 24 May 21:34:43 21:37:51 20° 266° (W) 21:41:02 2200.000
BEESAT 2 24 May 21:38:42 21:42:02 25° 52° (NE) 21:45:20 435.950
SEEDS 24 May 21:43:41 21:47:08 25° 265° (W) 21:50:36 437.485
CUBEBUG 2 24 May 21:50:56 21:55:16 49° 260° (W) 21:59:30 437.445
Oscar 11 24 May 21:51:57 21:56:14 84° 79° (E) 22:00:34 145.826/435.025
RS-15 24 May 21:55:31 22:04:00 22° 337° (NNW) 22:12:47 29.354- 29.394
ZACube-1 24 May 21:59:47 22:04:06 89° 269° (W) 22:08:19 437.345
DELFI C3 24 May 22:02:47 22:06:35 49° 74° (ENE) 22:10:26 145.870
CUTE 1.7 + AOD 2 24 May 22:04:47 22:05:59 11° 269° (W) 22:07:12 437.475
O/OREOS (USA 219) 24 May 22:13:09 22:15:07 13° 262° (W) 22:17:04 437.305
CUSAT 1 24 May 22:16:12 22:20:54 17° 61° (ENE) 22:25:16 437.405
BEESAT 3 24 May 22:19:31 22:23:26 63° 242° (WSW) 22:27:18 437.485
HO-68 24 May 22:27:02 22:30:57 15° 269° (W) 22:34:52 435.675
UWE-3 24 May 22:27:05 22:30:51 28° 263° (W) 22:34:32 435.000/436.395/437.385
AIST 1 24 May 22:28:38 22:33:00 69° 278° (W) 22:37:24
GONETS M04 24 May 22:31:04 22:39:36 57° 91° (E) 22:48:06
HUMSAT D 24 May 22:36:24 22:40:23 53° 75° (ENE) 22:44:22 437.325/437.525
FUNcube-1 24 May 22:40:18 22:44:06 31° 263° (W) 22:47:51 145.935
Cosmos 2499 24 May 22:44:28 22:50:50 36° 86° (E) 22:57:32 435.465 / 435.565
ISS 24 May 22:45:41 22:48:51 55° 137° (SE) 22:52:04 145.825
PRISM 24 May 22:52:21 22:55:07 17° 293° (WNW) 22:57:53 437.425
UNISAT 6 24 May 22:53:21 22:56:36 21° 95° (E) 22:59:53 437.425
PHONESAT 2.4 24 May 22:58:15 23:00:20 17° 147° (SSE) 23:02:26 2401.200-2431.200
TIGRISAT 24 May 23:01:49 23:05:20 24° 96° (E) 23:08:52 435.000
ESTCUBE 1 24 May 23:01:59 23:05:15 20° 67° (ENE) 23:08:34 437.505/2401.250
BEESAT 2 24 May 23:16:29 23:19:47 25° 248° (WSW) 23:23:06 435.950
DANDE 24 May 23:20:52 23:28:00 30° 68° (ENE) 23:34:44 436.750
AIST 2 24 May 23:21:40 23:24:53 21° 50° (NE) 23:28:03 435.215
50 SAT 24 May 23:30:11 23:33:13 26° 71° (ENE) 23:36:16 437.505
ANTELSAT 24 May 23:33:54 23:38:09 62° 101° (ESE) 23:42:27 437.575/2403.000
VELOX 1 24 May 23:36:45 23:40:44 32° 70° (ENE) 23:44:43 145.980
CUBEBUG 1 24 May 23:38:14 23:42:13 34° 71° (ENE) 23:46:13 437.445
NANOSAT C BR1 24 May 23:40:16 23:40:49 10° 91° (E) 23:41:22 145.865
DELFI C3 24 May 23:40:57 23:41:43 10° 269° (W) 23:42:30 145.870
DX 1 24 May 23:42:27 23:46:20 31° 70° (ENE) 23:50:14 434.975-435.025
CUSAT 1 24 May 23:56:22 00:04:20 88° 86° (E) 00:10:56 437.405
AISAT 25 May 00:11:50 00:16:18 86° 76° (ENE) 00:20:48 437.250
RS-15 25 May 00:15:17 00:23:09 19° 14° (NNE) 00:31:06 29.354- 29.394
HUMSAT D 25 May 00:15:54 00:16:19 10° 269° (W) 00:16:44 437.325/437.525
DUCHIFAT 1 25 May 00:17:39 00:21:17 28° 97° (E) 00:24:54 145.980
SPROUT 25 May 00:19:42 00:23:38 36° 72° (ENE) 00:27:34 437.525
ISS 25 May 00:23:08 00:25:32 19° 333° (NNW) 00:27:56 145.825
GONETS M04 25 May 00:29:24 00:36:48 29° 289° (WNW) 00:44:13
UNISAT 6 25 May 00:29:36 00:33:20 29° 289° (WNW) 00:37:05 437.425
PHONESAT 2.4 25 May 00:33:39 00:36:47 82° 160° (SSE) 00:39:55 2401.200-2431.200
JAS-2 25 May 00:37:03 00:40:02 13° 85° (E) 00:42:53 435.910
UKube-1 25 May 00:37:05 00:41:25 75° 258° (WSW) 00:45:46 .
Cosmos 2499 25 May 00:37:17 00:43:49 37° 286° (WNW) 00:50:45 435.465 / 435.565
ESTCUBE 1 25 May 00:37:43 00:41:49 35° 263° (W) 00:45:57 437.505/2401.250
TIGRISAT 25 May 00:38:25 00:41:57 25° 290° (WNW) 00:45:29 435.000
BUGSAT 1 25 May 00:49:03 00:52:35 29° 97° (E) 00:56:05 437.445
POPSAT HIP 1 25 May 00:51:42 00:55:55 83° 105° (ESE) 01:00:06 437.405
QB50P1 25 May 00:52:25 00:56:38 86° 102° (ESE) 01:00:49 145.935-145.965
QB50P2 25 May 00:53:35 00:57:49 86° 280° (W) 01:02:00 145.880/145.840
TISAT 1 25 May 00:55:58 00:59:26 25° 70° (ENE) 01:02:54 437.305
POLYITAN 1 25 May 00:56:01 01:00:14 84° 281° (WNW) 01:04:25 437.675
AIST 2 25 May 00:59:40 01:03:26 34° 246° (WSW) 01:07:10 435.215
DANDE 25 May 01:03:03 01:11:21 61° 267° (W) 01:18:55 436.750
50 SAT 25 May 01:04:35 01:06:57 16° 266° (W) 01:09:20 437.505
NANOSAT C BR1 25 May 01:12:46 01:16:52 56° 286° (WNW) 01:20:57 145.865
ANTELSAT 25 May 01:13:14 01:14:20 11° 296° (WNW) 01:15:27 437.575/2403.000
VELOX 1 25 May 01:13:51 01:17:12 21° 265° (W) 01:20:35 145.980
CUBEBUG 1 25 May 01:15:19 01:18:33 20° 266° (W) 01:21:47 437.445
DX 1 25 May 01:19:15 01:22:32 21° 265° (W) 01:25:50 434.975-435.025
CUSAT 1 25 May 01:40:55 01:45:04 16° 282° (WNW) 01:48:56 437.405
SO-50 25 May 01:45:57 01:50:51 83° 118° (ESE) 01:55:47 436.795
SWISSCUBE 25 May 01:45:58 01:49:24 20° 66° (ENE) 01:52:51 437.505
Oscar 19 25 May 01:48:39 01:52:23 20° 94° (E) 01:56:06 437.125/150
ITUPSAT 1 25 May 01:50:28 01:53:52 20° 66° (ENE) 01:57:17 437.325
DUCHIFAT 1 25 May 01:53:40 01:56:48 21° 292° (WNW) 01:59:55 145.980
SPROUT 25 May 01:56:50 01:59:41 17° 267° (W) 02:02:32 437.525
PHONESAT 2.4 25 May 02:10:38 02:13:40 47° 358° (N) 02:16:43 2401.200-2431.200
BEESAT 25 May 02:15:01 02:19:19 36° 70° (ENE) 02:23:39 436.000
JAS-2 25 May 02:18:36 02:26:13 84° 103° (ESE) 02:32:58 435.910
BUGSAT 1 25 May 02:24:53 02:27:46 19° 292° (WNW) 02:30:36 437.445
RS-15 25 May 02:28:35 02:40:13 44° 46° (NE) 02:51:45 29.354- 29.394
TISAT 1 25 May 02:31:33 02:35:00 24° 264° (W) 02:38:27 437.305
DANDE 25 May 02:51:37 02:52:26 10° 285° (WNW) 02:53:15 436.750
YUBILEINY 25 May 02:55:12 03:01:29 21° 67° (ENE) 03:07:44 435.215
SWISSCUBE 25 May 03:22:29 03:26:54 39° 262° (W) 03:31:21 437.505
Gurwin Techsat 1B 25 May 03:25:16 03:30:36 73° 102° (ESE) 03:35:54 435.225
ITUPSAT 1 25 May 03:26:57 03:31:24 40° 261° (W) 03:35:52 437.325
Oscar 19 25 May 03:27:00 03:31:53 43° 289° (WNW) 03:36:42 437.125/150
SO-50 25 May 03:29:14 03:31:57 15° 317° (NW) 03:34:41 436.795
Cosmos 2491 25 May 03:47:16 03:53:52 24° 82° (E) 04:00:27 435.465 / 435.565
PHONESAT 2.4 25 May 03:47:30 03:50:38 72° 14° (NNE) 03:53:44 2401.200-2431.200
AO-7 25 May 03:48:33 03:54:35 21° 94° (E) 04:00:34 29.400- 29.500
MOZHAYETS 4 25 May 03:52:57 03:56:58 32° 70° (ENE) 04:01:01
BEESAT 25 May 03:53:36 03:57:10 21° 265° (W) 04:00:46 436.000
Cosmos 2504 25 May 03:55:42 03:59:25 13° 63° (ENE) 04:03:11 435.465 / 435.565
KKS-1 25 May 03:58:45 04:03:06 54° 74° (ENE) 04:07:29 437.445
ITAMSAT 1 25 May 04:01:40 04:06:51 62° 102° (ESE) 04:12:00 435.822/435.867
JAS-2 25 May 04:05:17 04:10:08 19° 303° (WNW) 04:14:43 435.910
RS-15 25 May 04:41:12 04:53:10 60° 248° (WSW) 05:05:01 29.354- 29.394
STARS 25 May 04:42:27 04:46:52 84° 78° (ENE) 04:51:18 437.465
YUBILEINY 25 May 04:50:24 04:59:09 77° 266° (W) 05:07:54 435.215
Gurwin Techsat 1B 25 May 05:07:18 05:09:53 14° 298° (WNW) 05:12:28 435.225
CUBESAT XI-V 25 May 05:10:34 05:14:18 24° 68° (ENE) 05:18:05 437.345
ISS 25 May 05:15:06 05:18:06 33° 33° (NNE) 05:21:05 145.825
HORYU 2 25 May 05:19:01 05:22:27 22° 95° (E) 05:25:52 437.375
PHONESAT 2.4 25 May 05:24:32 05:27:13 26° 210° (SSW) 05:29:53 2401.200-2431.200
MOZHAYETS 4 25 May 05:30:40 05:34:09 21° 266° (W) 05:37:39
KKS-1 25 May 05:38:05 05:39:58 12° 268° (W) 05:41:52 437.445
AO-7 25 May 05:39:38 05:48:00 75° 290° (WNW) 05:56:19 29.400- 29.500
Cosmos 2491 25 May 05:41:07 05:49:53 66° 280° (W) 05:58:41 435.465 / 435.565
ITAMSAT 1 25 May 05:42:44 05:45:46 16° 297° (WNW) 05:48:47 435.822/435.867
Cosmos 2504 25 May 05:45:43 05:54:08 74° 82° (E) 06:02:57 435.465 / 435.565
NOAA 15 25 May 06:15:05 06:18:23 17° 92° (E) 06:21:40 137.62
CUBESAT XI-V 25 May 06:47:26 06:51:31 30° 264° (W) 06:55:39 437.345
YUBILEINY 25 May 06:51:19 06:54:21 12° 284° (WNW) 06:57:25 435.215
ISS 25 May 06:51:48 06:54:25 22° 229° (SW) 06:57:02 145.825
HORYU 2 25 May 06:55:08 06:59:00 30° 290° (WNW) 07:02:52 437.375
CUTE-I 25 May 06:55:35 07:00:10 28° 96° (E) 07:04:44 437.470
STRAND 1 25 May 06:57:05 07:01:20 27° 68° (ENE) 07:05:36 437.568
